[[{"header":{"parameterUnit":"m.s-1","parameterCategory":1,"la1":30.2991,"la2":30.254,"lo1":-89.0895,"lo2":-89.0444,"dy":0.0017,"dx":0.0017,"nx":28,"ny":28,"refTime":"2024-07-25T03:00:00:Z","depth":0,"parameterNumber":2,"parameterNumberName":"U-component_of_WINDS"},"data":[0,0,0,0,0,0,0,0,0,0,0,0,0,0,0,0,0,0,0,0,0,0,0,0,0,0,0,0,0,0,0,0,0,0,0,0,0,0,0,0,0,0,0,0,0,0,0,0,0,0,0,0,0,0,0,0,0,0,0.9352,0.9353,0,0.9455,0.9457,0.9458,0.9484,0.9484,0.9483,0.9482,0.9587,0.9591,0.9594,0,0,0,0,0,0,0,0,0,0,0,0,0,0.9177,0.918,0.9352,0.9353,0.9354,0.9455,0.9457,0.9458,0.9484,0.9484,0.9483,0.9482,0.9586,0.959,0.9594,0,0,0,0,0,0,0,0,0,0,0,0,0,0.9264,0.9181,0.9352,0.938,0.9383,0.9455,0.9457,0.9458,0.9485,0.9484,0.9483,0.9482,0.9585,0.959,0.9595,0.9645,0,0,0.961,0.9613,0,0,0,0,0,0,0,0,0.9259,0.927,0.9374,0.9378,0.9382,0.9456,0.9433,0.9521,0.9485,0.9446,0.9482,0.9481,0.9544,0.9553,0.9574,0.965,0.9655,0.9611,0.9614,0.9616,0.9618,0,0,0,0,0,0,0,0.9253,0.9266,0.9393,0.9376,0.9381,0.9387,0.9398,0.945,0.9499,0.9449,0.9452,0.9464,0.9546,0.9569,0.9577,0.9656,0.9611,0.9615,0.9618,0.962,0.978,0.9781,0,0,0,0,0,0,0.9242,0.9261,0.939,0.9396,0.9317,0.9391,0.9404,0.9433,0.9499,0.9508,0.9464,0.9464,0.9561,0.9571,0.9581,0.9644,0.9616,0.9621,0.9624,0.9778,0.978,0.9781,0,0,0,0,0,0,0.9238,0.9253,0.9385,0.9329,0.9346,0.9395,0.9428,0.9436,0.9459,0.951,0.9519,0.9479,0.9561,0.9573,0.9629,0.9648,0.9623,0.9628,0.9777,0.9779,0.978,0.9772,0,0,0,0,0,0,0.9233,0.9252,0.9271,0.9329,0.9349,0.9432,0.9429,0.9439,0.9468,0.9469,0.9526,0.9534,0.9561,0.9622,0.9634,0.9655,0.9632,0.9776,0.9778,0.978,0.977,0.9773,0.9775,0,0,0,0,0,0.9226,0.9264,0.9272,0.9288,0.9375,0.9433,0.9445,0.9475,0.9469,0.9489,0.9522,0.9533,0.9644,0.9627,0.9642,0.9664,0.9774,0.9777,0.978,0.9769,0.9772,0.9775,0,0,0,0,0,0,0.9207,0.9272,0.9282,0.934,0.9381,0.9438,0.9464,0.9477,0.952,0.9519,0.9554,0.9567,0.9621,0.9648,0.9628,0.9717,0.9709,0.9715,0.9697,0.97,0.9702,0.9694,0.9636,0,0,0,0,0,0.921,0.9252,0.9307,0.9352,0.9373,0.9415,0.9441,0.9461,0.9505,0.9522,0.9559,0.9601,0.9646,0.9674,0.9718,0.9775,0.9788,0.9797,0.98,0.9801,0.9806,0.9838,0.9843,0.979,0.979,0.979,0,0,0.9215,0.9256,0.928,0.935,0.9384,0.9427,0.9429,0.9474,0.9506,0.9529,0.9584,0.9613,0.9662,0.9718,0.9745,0.9743,0.9823,0.9805,0.9806,0.9809,0.9841,0.9846,0.985,0.9792,0.9791,0.9791,0,0,0.9247,0.9282,0.9324,0.9359,0.9411,0.9439,0.9449,0.9504,0.9524,0.958,0.9598,0.9637,0.9713,0.9747,0.9774,0.982,0.9831,0.9833,0.9845,0.9876,0.988,0.9884,0.99,0.9905,0.9837,0.9837,0.9837,0,0.9247,0.9312,0.9344,0.9389,0.9418,0.9442,0.9484,0.9516,0.9579,0.9599,0.9596,0.9693,0.9727,0.9792,0.9803,0.9825,0.9837,0.9826,0.9877,0.9881,0.9885,0.9901,0.9907,0.9837,0.9837,0.9837,0.9837,0,0.931,0.9355,0.9382,0.9444,0.9477,0.952,0.9558,0.9588,0.9605,0.9633,0.969,0.9733,0.9785,0.9802,0.9819,0.987,0.9867,0.987,0.9863,0.9889,0.9905,0.9911,0.9837,0.9837,0.9837,0.9837,0,0,0.9331,0.941,0.942,0.9448,0.9507,0.9543,0.9587,0.9639,0.9664,0.9707,0.9745,0.9809,0.9813,0.9844,0.9865,0.9892,0.9925,0.9892,0.9893,0.9896,0.9984,0.9981,0.9987,0.9933,0.9934,0.9935,0.9979,0,0.937,0.945,0.9481,0.9547,0.9589,0.9612,0.9651,0.9691,0.9719,0.9759,0.9789,0.9834,0.9835,0.9854,0.9882,0.9915,0.9943,0.9912,0.9969,0.997,0.9955,0.9995,0.9992,1.0032,0.9986,0.9987,0.9987,0,0.9426,0.947,0.954,0.9595,0.9614,0.9648,0.9699,0.9736,0.9783,0.9801,0.9836,0.9856,0.9903,0.9894,0.996,0.9938,0.9963,0.9983,0.9985,0.9991,0.998,1.0002,1.0045,1.0051,0.9997,0.9996,0.9996,0,0.9434,0.9511,0.9563,0.9587,0.9652,0.9676,0.9704,0.9749,0.9779,0.9823,0.9843,0.9892,0.9918,0.9956,0.9988,0.9978,1.0051,1.0044,1.0067,1.0066,1.0081,1.0079,1.0128,1.0097,1.0097,1.0097,1.0097,0,0.9474,0.9516,0.9568,0.96,0.9648,0.9682,0.9729,0.9758,0.9799,0.9837,0.986,0.9895,0.9935,0.9976,1.0001,1.0052,1.0064,1.0079,1.0086,1.0077,1.0075,1.0094,1.0092,1.0099,1.0098,1.0098,1.0098,0,0.9491,0.9527,0.9586,0.9643,0.9658,0.9691,0.974,0.9772,0.9801,0.9849,0.9862,0.9908,0.9956,0.9992,1.0055,1.0072,1.0126,1.0133,1.011,1.0114,1.0134,1.0132,1.0196,1.0206,1.0169,1.0169,1.0169,0,0.9513,0.9546,0.9607,0.9635,0.9663,0.9707,0.9737,0.9773,0.9804,0.986,0.9885,0.9935,0.9977,1.0054,1.0093,1.0141,1.0149,1.0168,1.0156,1.0147,1.0149,1.0146,1.015,1.0169,1.017,1.017,1.017,0,0.955,0.9567,0.961,0.966,0.9696,0.9737,0.9778,0.9799,0.9842,0.9876,0.9926,0.9959,1.0024,1.0073,1.0126,1.0155,1.0169,1.0174,1.0181,1.0173,1.0159,1.0166,1.0115,1.0172,1.0172,1.0171,1.0171,1.0171,0.957,0.9601,0.9649,0.9696,0.9731,0.977,0.9803,0.9836,0.9879,0.9935,0.9953,1.0005,1.0051,1.0123,1.0153,1.0194,1.0194,1.0205,1.0208,1.021,1.0209,1.0152,1.0204,1.0204,1.0204,1.0204,1.0204,0,0.9608,0.964,0.9684,0.9741,0.9779,0.979,0.9837,0.9867,0.9913,0.9955,0.9996,1.0054,1.0103,1.0146,1.0196,1.0221,1.0229,1.0233,1.0231,1.0238,1.0207,1.0195,1.0225,1.0225,1.0225,1.0225,1.0225,1.0225,0.9632,0.9684,0.9706,0.9776,0.9808,0.986,0.9885,0.9921,0.9955,1.0019,1.0059,1.0087,1.0129,1.0183,1.0228,1.024,1.0257,1.0259,1.0272,1.0242,1.024,1.0237,1.0226,1.0263,1.0263,1.03,1.03,1.03]},{"header":{"parameterUnit":"m.s-1","parameterCategory":1,"la1":30.2991,"la2":30.254,"lo1":-89.0895,"lo2":-89.0444,"dy":0.0017,"dx":0.0017,"nx":28,"ny":28,"refTime":"2024-07-25T03:00:00:Z","depth":0,"parameterNumber":3,"parameterNumberName":"V-component_of_WINDS"},"data":[0,0,0,0,0,0,0,0,0,0,0,0,0,0,0,0,0,0,0,0,0,0,0,0,0,0,0,0,0,0,0,0,0,0,0,0,0,0,0,0,0,0,0,0,0,0,0,0,0,0,0,0,0,0,0,0,0,0,3.6876,3.6876,0,3.6879,3.6879,3.6879,3.6845,3.6844,3.6843,3.6842,3.6846,3.6847,3.6847,0,0,0,0,0,0,0,0,0,0,0,0,0,3.6838,3.6839,3.6876,3.6876,3.6876,3.6879,3.6879,3.6879,3.6845,3.6844,3.6843,3.6842,3.6845,3.6846,3.6848,0,0,0,0,0,0,0,0,0,0,0,0,0,3.6849,3.6839,3.6876,3.6859,3.6858,3.6879,3.6879,3.6879,3.6846,3.6844,3.6843,3.6841,3.6845,3.6846,3.6848,3.6885,0,0,3.6852,3.6853,0,0,0,0,0,0,0,0,3.6848,3.685,3.6862,3.686,3.6859,3.686,3.6867,3.6881,3.6846,3.685,3.6842,3.6841,3.6852,3.6852,3.6856,3.6885,3.6885,3.6852,3.6853,3.6854,3.6854,0,0,0,0,0,0,0,3.6848,3.685,3.6877,3.6862,3.686,3.6851,3.6851,3.687,3.6859,3.685,3.6847,3.6848,3.6851,3.6855,3.6856,3.6885,3.6852,3.6854,3.6854,3.6855,3.6943,3.6945,0,0,0,0,0,0,3.6849,3.685,3.6877,3.6877,3.685,3.6853,3.6853,3.6861,3.6858,3.6857,3.6849,3.6847,3.6853,3.6854,3.6856,3.6898,3.6854,3.6855,3.6856,3.6942,3.6944,3.6945,0,0,0,0,0,0,3.6849,3.6852,3.6877,3.6863,3.6865,3.6855,3.6865,3.6862,3.6866,3.6858,3.6856,3.6856,3.6852,3.6854,3.6878,3.6897,3.6856,3.6857,3.694,3.6942,3.6944,3.6983,0,0,0,0,0,0,3.6848,3.6852,3.6866,3.6863,3.6866,3.6899,3.6866,3.6863,3.6869,3.6865,3.6864,3.6862,3.6851,3.6876,3.6879,3.6899,3.6858,3.6938,3.6941,3.6944,3.698,3.6986,3.6992,0,0,0,0,0,3.6846,3.6877,3.6867,3.6871,3.6884,3.69,3.6902,3.6888,3.6871,3.6885,3.6879,3.6862,3.6895,3.6878,3.6882,3.6902,3.6937,3.694,3.6944,3.6977,3.6985,3.6991,0,0,0,0,0,0,3.6883,3.6877,3.6865,3.6897,3.6899,3.6894,3.6912,3.6897,3.6905,3.6901,3.6884,3.6884,3.691,3.6909,3.689,3.6937,3.6913,3.6917,3.6937,3.6944,3.695,3.6949,3.6859,0,0,0,0,0,3.6895,3.6909,3.6903,3.6931,3.6932,3.6922,3.6928,3.6918,3.692,3.6921,3.6917,3.692,3.693,3.6938,3.6947,3.698,3.6978,3.6996,3.7002,3.7006,3.701,3.7025,3.7032,3.6956,3.6956,3.6956,0,0,3.6919,3.6918,3.6927,3.6938,3.6939,3.6952,3.6923,3.694,3.6949,3.6923,3.6945,3.6943,3.6944,3.6972,3.6984,3.6971,3.7031,3.7011,3.7015,3.7015,3.7029,3.7037,3.7043,3.6958,3.6958,3.6958,0,0,3.697,3.6971,3.6994,3.6995,3.6996,3.6989,3.6994,3.6992,3.6989,3.701,3.6991,3.7002,3.7022,3.7023,3.7026,3.7077,3.706,3.708,3.7111,3.7126,3.7132,3.7137,3.7153,3.716,3.7084,3.7084,3.7084,0,3.7,3.7021,3.7007,3.7024,3.7029,3.7006,3.7028,3.703,3.7034,3.7037,3.7024,3.7046,3.7046,3.7073,3.7085,3.7089,3.7094,3.708,3.7132,3.7137,3.7142,3.7157,3.7164,3.7086,3.7086,3.7086,3.7086,0,3.7057,3.7071,3.7089,3.7093,3.71,3.712,3.7108,3.7117,3.7106,3.71,3.7121,3.712,3.7128,3.7134,3.7124,3.7159,3.7151,3.7135,3.711,3.7152,3.7166,3.7172,3.709,3.7089,3.7088,3.7088,0,0,3.713,3.7126,3.7133,3.7134,3.7133,3.7144,3.7162,3.717,3.7177,3.7181,3.7195,3.7211,3.7196,3.72,3.719,3.7203,3.7241,3.7185,3.7185,3.7194,3.7278,3.7289,3.7296,3.7231,3.7232,3.7233,3.7278,0,3.7179,3.7209,3.7197,3.7228,3.724,3.7219,3.7234,3.7235,3.723,3.724,3.7234,3.7245,3.7225,3.7227,3.724,3.7234,3.7258,3.7231,3.7243,3.7243,3.7241,3.7304,3.7316,3.7357,3.7283,3.7284,3.7285,0,3.7239,3.7244,3.7277,3.7273,3.7277,3.7292,3.7297,3.7307,3.7307,3.7302,3.7306,3.7293,3.7309,3.7285,3.7308,3.729,3.7294,3.7292,3.7293,3.7292,3.7265,3.7303,3.7371,3.7376,3.7294,3.7293,3.7292,0,3.7287,3.7303,3.7323,3.7325,3.7322,3.7332,3.7331,3.733,3.7335,3.734,3.7343,3.735,3.7353,3.7359,3.7347,3.7331,3.737,3.7346,3.7366,3.7366,3.7374,3.7373,3.7441,3.738,3.738,3.738,3.7379,0,3.7341,3.7361,3.7345,3.7357,3.7379,3.7365,3.7386,3.7383,3.7382,3.7394,3.7376,3.7387,3.7372,3.7381,3.7372,3.7391,3.7393,3.7389,3.7386,3.739,3.739,3.7391,3.7387,3.7381,3.7381,3.7381,3.738,0,3.7397,3.7388,3.7409,3.7403,3.7402,3.7418,3.7414,3.7425,3.7418,3.7433,3.7435,3.7425,3.7435,3.7424,3.7434,3.7428,3.7453,3.7446,3.7452,3.745,3.747,3.7467,3.754,3.7548,3.7483,3.7483,3.7484,0,3.7432,3.7446,3.7442,3.7448,3.7448,3.7459,3.7463,3.745,3.7455,3.7456,3.7467,3.7476,3.7481,3.7498,3.7491,3.7498,3.7491,3.7516,3.7492,3.7494,3.7489,3.7488,3.7489,3.752,3.7521,3.7522,3.7522,0,3.7493,3.7487,3.7494,3.75,3.7506,3.751,3.7512,3.7518,3.7504,3.7511,3.7521,3.7525,3.7534,3.7542,3.7547,3.7546,3.7531,3.753,3.7535,3.7537,3.754,3.7537,3.7464,3.7528,3.7527,3.7527,3.7527,3.7526,3.7538,3.7549,3.7548,3.7557,3.7557,3.7559,3.7569,3.7564,3.7572,3.7577,3.7569,3.7581,3.758,3.7585,3.7585,3.7594,3.7583,3.759,3.7592,3.7593,3.7595,3.754,3.7595,3.7594,3.7594,3.7594,3.7594,0,3.7597,3.7594,3.7603,3.7606,3.7613,3.7599,3.76,3.7607,3.7617,3.7618,3.7623,3.7634,3.7641,3.7635,3.7642,3.765,3.7643,3.7652,3.765,3.765,3.7605,3.76,3.7657,3.7657,3.7657,3.7657,3.7657,3.7657,3.7628,3.7646,3.764,3.7658,3.7655,3.7666,3.7668,3.767,3.767,3.7683,3.7689,3.7685,3.7682,3.7688,3.7694,3.7692,3.7694,3.7705,3.7701,3.7659,3.7653,3.7647,3.7642,3.7706,3.7706,3.7744,3.7744,3.7744]}]]